Regional Weather Roundup
Issued by NWS Austin/San Antonio, TX

Home | Current Version | Previous Version | Text Only | Print | Product List | Glossary On
Versions: 1 2 3 4 5 6 7 8 9 10 11 12 13 14 15 16 17 18 19 20 21 22 23 24 25 26 27 28 29 30 31 32 33 34 35 36 37 38 39 40 41 42 43 44 45 46 47 48 49 50
000
ASUS44 KEWX 212001
RWREWX
SOUTH TEXAS REGIONAL WEATHER ROUNDUP
NATIONAL WEATHER SERVICE AUSTIN/SAN ANTONIO TX
300 PM CDT MON OCT 21 2019

NOTE: "FAIR" INDICATED FEW OR NO CLOUDS BELOW 12,000 FEET WITH NO
SIGNIFICANT WEATHER AND/OR OBSTRUCTIONS TO VISIBILITY.

* - THESE STATIONS ARE NOT NWS OR FAA STATIONS...AND ARE NOT SUBJECT
    TO NWS AND FAA QUALITY CONTROL.

TXZ171-172-183>190-212100-
TEXAS HILL COUNTRY AND EDWARDS PLATEAU

CITY           SKY/WX    TMP DP  RH WIND       PRES   REMARKS
JUNCTION       SUNNY     77  32  19 VRB5      29.95F
*LLANO         SUNNY     77  30  18 N3        29.97S
BURNET         SUNNY     75  33  21 N6        29.95F
*HORSESHOE BAY SUNNY     75  32  20 N6        29.93F
*KERRVILLE     SUNNY     76  29  17 CALM      29.93F
*FREDERICKSBRG SUNNY     74  31  21 NE3       29.94F
*ROCKSPRINGS   SUNNY     73  28  19 NW7G16    30.01S
*BOERNE        SUNNY     73  34  23 NE9       29.93F
*CASTROVILLE   SUNNY     82  31  15 N8        29.91F
HONDO          SUNNY     84  32  15 N9        29.90F
*UVALDE        SUNNY     82  33  17 N5        29.90F
DEL RIO        SUNNY     86  22   9 N9        29.90F
LAUGHLIN AFB   NOT AVBL
SPOFFORD       NOT AVBL
*EAGLE PASS    SUNNY     86  27  11 W8G15     29.90F
CARRIZO SPRGS  SUNNY     86  36  16 N7        29.87F
*FAITH RANCH   SUNNY     88  39  18 N12       29.88F
$$

TXZ173-191>194-202-209-217>225-228-212100-
CENTRAL AND SOUTH CENTRAL TEXAS

CITY           SKY/WX    TMP DP  RH WIND       PRES   REMARKS
GEORGETOWN     SUNNY     77  32  19 N9        29.93F
AUSTIN/BERGSTM MOSUNNY   80  34  19 N14G21    29.89S
AUSTIN/MABRY   SUNNY     80  33  18 VRB6      29.90F
*AUSTIN/EXEC   SUNNY     77  32  19 N13G20    29.90F
*LAGO VISTA    SUNNY     74  34  23 N5        29.93S
SAN MARCOS     SUNNY     80  38  22 NE12G17   29.90F
NEW BRAUNFELS  SUNNY     81  33  17 NE13      29.87F
RANDOLPH AFB   SUNNY     80  37  21 N8        29.89F
SEGUIN         NOT AVBL
KELLY FIELD    NOT AVBL
SAN ANTONIO    MOSUNNY   80  37  21 N7        29.90F
STINSON FIELD  SUNNY     81  40  23 NE8       29.87F
PLEASANTON     SUNNY     81  37  20 N9        29.88F
*LA GRANGE     SUNNY     80  43  27 N8        29.85S
*GIDDINGS      SUNNY     80  38  21 NE6       29.89S
*GONZALES      SUNNY     81  42  25 NE7       29.87S
$$

TXZ163>164-176>182-195>201-210>213-226-227-235-212100-
SOUTHEAST TEXAS

CITY           SKY/WX    TMP DP  RH WIND       PRES   REMARKS
COLLEGE STN    SUNNY     81  40  23 N12       29.87F
*BRYAN         SUNNY     78  43  27 N10G16    29.88F
*CALDWELL      SUNNY     77  37  22 N8        29.88F
*CROCKETT      SUNNY     75  45  33 N6        29.89S
*BRENHAM       SUNNY     79  42  26 N9G16     29.87R
HUNTSVILLE     SUNNY     79  45  29 N7        29.86F
CONROE         SUNNY     78  58  49 N6        29.84F
HOUSTON BUSH   MOSUNNY   79  62  56 NE9G17    29.82F
HOUSTON HOBBY  FAIR      78  60  53 NE12      29.82S
*HOUSTON SW AP FAIR      76  63  63 NE5       29.83S
PEARLAND       FAIR      76  62  62 N7        29.83F
HOUSTON HOOKS  FAIR      79  57  46 N6        29.83S
ELLINGTON FLD  MOSUNNY   75  61  60 N7        29.81F
SUGAR LAND     FAIR      81  62  52 N9        29.82S
*HOUSTON EXEC  FAIR      79  57  47 N7G13     29.84F
*CLEVELAND MUN FAIR      75  64  67 N9        29.84F
*WHARTON       SUNNY     78  52  40 N10G16    29.84R
*COLUMBUS      FAIR      80  39  22 N10G16    29.85S
*EAGLE LAKE    SUNNY     82  52  35 NE14      29.84S
$$

TXZ214>216-236>238-212100-
THE UPPER TEXAS COAST

CITY           SKY/WX    TMP DP  RH WIND       PRES   REMARKS
*ORANGE        FAIR      70  69  97 CALM      29.82F
PORT ARTHUR    FAIR      72  66  81 N7        29.80F
GALVESTON      FAIR      74  66  76 N10       29.81F
ANGLETON       FAIR      76  65  68 NE7       29.81F
*BAY CITY      SUNNY     79  65  61 NE7       29.81F
PALACIOS       NOT AVBL
$$

TXZ229>234-239>247-212100-
TEXAS COASTAL BEND AND RIO GRANDE PLAINS

CITY           SKY/WX    TMP DP  RH WIND       PRES   REMARKS
VICTORIA       SUNNY     82  56  40 NE13      29.83F
*BEEVILLE      SUNNY     87  47  24 N13       29.83S
ROCKPORT       PTSUNNY   84  65  52 NE14      29.81F
*PORT ARANSAS  SUNNY     79  67  65 N16       29.84S
*PORT LAVACA   SUNNY     83  63  51 NE10      29.83F
*INGLESIDE     SUNNY     81  66  60 NE12      29.82S
CORPUS CHRISTI PTSUNNY   86  61  42 NE17      29.81F
CORPUS NAS     PTSUNNY   83  69  62 N17       29.82S
*ROBSTOWN      MOSUNNY   83  58  41 NE13G20   29.82F
ALICE          SUNNY     89  53  29 N14       29.82F
KINGSVILLE NAS PTSUNNY   86  63  45 N14       29.81F
COTULLA        SUNNY     87  37  17 N8        29.87F
LAREDO         SUNNY     87  58  37 N13       29.84F
$$

TXZ248>255-212100-
DEEP SOUTH TEXAS

CITY           SKY/WX    TMP DP  RH WIND       PRES   REMARKS
BROWNSVILLE    FAIR      89  75  63 SW8       29.75F HX  99
PORT ISABEL    FAIR      90  75  61 W6        29.75F HX 100
HARLINGEN      SUNNY     91  77  63 NW9       29.76F HX 104
*HEBBRONVILLE  SUNNY     87  60  40 CALM      29.84F
MCALLEN        MOSUNNY   91  73  55 N9        29.77F HX  99
*WESLACO       MOSUNNY   89  72  55 NE5       29.76  HX  96
FALFURRIAS     SUNNY     89  62  39 NE14      29.80F
EDINBURG       PTSUNNY   91  70  50 NE12      29.76F HX  96
*ZAPATA        NOT AVBL
$$

TXZ213>215-236>238-242>244-246-247-251-254-255-212100-
CMAN STATIONS

STATION/POSITION TIME  TEMP    WIND        PRES    WAVE
                       AIR SEA DIR/SP/G            HT/PER
                 (UTC) (F)     (DEG/KT/KT) (MB)    (FT/S)
SABINE PASS      1930   70 78  350/  6/  8 1011.4
SEA RIM ST PARK  1900   69     340/  5/  6 1009.9
NORTH JETTY/GLS  1918   70 77   20/ 11/ 13 1008.5
EAGLE POINT      1930   71 76   30/  9/ 11 1008.9
MORGANS POINT    1930   72 78   30/  7/  9 1009.4
PORT O`CONNOR    1930   75 81   30/ 14/ 17 1009.5
PORT ARANSAS     1900   76 79   10/ 16/ 18 1009.8
MALAQUITE BEACH  1930   78 81   10/ 16/ 19 1009.4
BAFFIN BAY       1930   76 81  350/ 17/ 19 1009.7
PORT ISABEL      1930   89 81  230/  7/ 11 1007.9
$$



USA.gov is the U.S. government's official web portal to all federal, state and local government web resources and services.